AA1OV-2 Weather Reports


time (UTC)temp
F
wind
direction
speed
knots
gust
knots
rain 1hr
in
rain 24hr
in
rain mn
in
humidity
%
barometer
mb
20200531080229 73 200 1.7 2.6 0.00 0.00 0.00 35 1015.6
20200531075218 73 217 0.9 1.7 0.00 0.00 0.00 34 1015.8
20200531074227 73 148 0.0 0.0 0.00 0.00 0.00 35 1015.8
20200531073218 74 139 0.0 0.9 0.00 0.00 0.00 34 1015.8
20200531072226 74 190 0.0 0.0 0.00 0.00 0.00 34 1015.7
20200531071219 74 201 0.0 0.9 0.00 0.00 0.00 34 1015.8
20200531070229 74 200 0.0 1.7 0.00 0.00 0.00 33 1015.6
20200531065218 74 214 0.9 3.5 0.00 0.00 0.00 34 1015.6
20200531064227 74 243 0.0 3.5 0.00 0.00 0.00 34 1015.6
20200531063217 74 190 1.7 3.5 0.00 0.00 0.00 33 1015.8
20200531062225 74 196 2.6 4.3 0.00 0.00 0.00 33 1015.8
20200531061218 74 262 0.0 3.5 0.00 0.00 0.00 34 1015.8
20200531060227 74 191 0.9 1.7 0.00 0.00 0.00 34 1015.9
20200531055216 74 233 0.0 1.7 0.00 0.00 0.00 35 1015.9
20200531054224 74 226 0.0 1.7 0.00 0.00 0.00 35 1015.9
20200531053215 75 163 1.7 2.6 0.00 0.00 0.00 35 1015.8
20200531052228 75 72 0.9 1.7 0.00 0.00 0.00 35 1015.7
20200531051217 77 162 0.9 1.7 0.00 0.00 0.00 33 1015.6
20200531050227 77 285 0.0 1.7 0.00 0.00 0.00 33 1015.6
20200531045216 77 265 0.0 2.6 0.00 0.00 0.00 32 1015.5
20200531044225 78 262 1.7 5.2 0.00 0.00 0.00 32 1015.3
20200531043219 78 266 4.3 7.8 0.00 0.00 0.00 32 1015.3
20200531042228 79 293 4.3 8.7 0.00 0.00 0.00 32 1015.2
20200531041217 79 288 3.5 10.4 0.00 0.00 0.00 31 1015.2
20200531040226 80 266 7.0 13.9 0.00 0.00 0.00 31 1014.9
20200531035214 80 270 7.0 16.5 0.00 0.00 0.00 31 1014.8
20200531034226 81 258 5.2 11.3 0.00 0.00 0.00 27 1014.8
20200531033217 82 276 7.8 16.5 0.00 0.00 0.00 27 1014.8
20200531032225 83 292 8.7 14.8 0.00 0.00 0.00 26 1014.9
20200531031214 83 259 7.8 14.8 0.00 0.00 0.00 25 1015.0
20200531030223 83 255 7.8 15.6 0.00 0.00 0.00 25 1015.0
20200531025215 84 230 13.0 20.0 0.00 0.00 0.00 24 1015.0
20200531024224 84 272 10.4 18.2 0.00 0.00 0.00 24 1014.7
20200531023233 85 255 10.4 18.2 0.00 0.00 0.00 23 1014.5
20200531022220 85 283 7.8 14.8 0.00 0.00 0.00 22 1014.4
20200531021229 86 256 8.7 13.0 0.00 0.00 0.00 21 1014.3
20200531020218 86 291 3.5 8.7 0.00 0.00 0.00 21 1014.1
20200531015230 85 250 5.2 9.6 0.00 0.00 0.00 22 1013.9
20200531014219 85 283 5.2 8.7 0.00 0.00 0.00 23 1013.8
20200531013228 85 269 4.3 8.7 0.00 0.00 0.00 24 1013.5
20200531012216 85 297 5.2 8.7 0.00 0.00 0.00 24 1013.4
20200531011225 85 292 4.3 11.3 0.00 0.00 0.00 24 1013.3
20200531010220 85 285 7.0 13.9 0.00 0.00 0.00 23 1013.3
20200531005230 86 250 7.0 13.9 0.00 0.00 0.00 23 1013.4
20200531004220 87 266 9.6 15.6 0.00 0.00 0.00 22 1013.5
20200531003229 87 277 9.6 15.6 0.00 0.00 0.00 20 1013.4
20200531002217 88 236 8.7 14.8 0.00 0.00 0.00 19 1013.6
20200531001230 88 314 7.8 13.0 0.00 0.00 0.00 19 1013.5
20200531000218 89 281 7.0 12.2 0.00 0.00 0.00 19 1013.5
20200530235227 89 264 8.7 15.6 0.00 0.00 0.00 19 1013.6
20200530234216 91 264 8.7 16.5 0.00 0.00 0.00 19 1013.7
20200530233225 92 297 4.3 10.4 0.00 0.00 0.00 20 1013.7
20200530232217 94 307 5.2 11.3 0.00 0.02 0.00 19 1013.9
20200530231227 94 174 2.6 7.0 0.00 0.02 0.00 15 1013.9
20200530230218 94 215 4.3 8.7 0.00 0.02 0.00 15 1014.1
20200530225224 94 204 3.5 9.6 0.00 0.02 0.00 15 1014.1
20200530224214 94 162 1.7 7.0 0.00 0.02 0.00 15 1014.1
20200530223224 95 227 3.5 7.8 0.00 0.02 0.00 15 1014.1
20200530222216 95 132 2.6 7.8 0.00 0.02 0.00 14 1014.1
20200530221223 95 195 5.2 10.4 0.00 0.02 0.00 15 1014.1
20200530220213 95 162 3.5 11.3 0.00 0.02 0.00 14 1014.2
20200530215222 95 158 4.3 7.8 0.00 0.02 0.00 14 1014.4
20200530214212 95 198 5.2 8.7 0.00 0.02 0.00 14 1014.6
20200530213226 95 163 1.7 9.6 0.00 0.02 0.00 15 1014.7
20200530212215 95 103 3.5 12.2 0.00 0.02 0.00 15 1014.9
20200530211225 95 155 7.0 12.2 0.00 0.02 0.00 14 1015.0
20200530210215 95 139 4.3 12.2 0.00 0.02 0.00 14 1015.1
20200530205224 95 163 7.0 13.0 0.00 0.02 0.00 14 1015.3
20200530204218 96 129 5.2 12.2 0.00 0.02 0.00 14 1015.3
20200530203227 96 165 6.1 13.9 0.00 0.02 0.00 14 1015.6
20200530202217 95 142 3.5 11.3 0.00 0.02 0.00 14 1015.5
20200530201226 94 134 9.6 19.1 0.00 0.02 0.00 14 1015.6
20200530200217 95 75 8.7 16.5 0.00 0.02 0.00 14 1015.8
20200530195230 95 129 6.1 20.0 0.00 0.02 0.00 14 1016.1
20200530194219 94 93 5.2 14.8 0.00 0.02 0.00 14 1016.0
20200530193230 95 131 7.0 15.6 0.00 0.02 0.00 14 1016.4
20200530192218 95 113 8.7 15.6 0.00 0.02 0.00 14 1016.3
20200530191228 94 151 8.7 16.5 0.00 0.02 0.00 13 1016.5
20200530190224 94 176 3.5 10.4 0.00 0.02 0.00 15 1016.7
20200530185232 94 158 5.2 13.0 0.00 0.02 0.00 16 1017.0
20200530184303 94 124 5.2 11.3 0.00 0.02 0.00 15 1017.0
20200530183230 94 165 6.1 12.2 0.00 0.02 0.00 16 1017.1
20200530182219 94 167 3.5 8.7 0.00 0.02 0.00 17 1017.3
20200530181229 93 84 8.7 13.0 0.00 0.02 0.00 18 1017.4
20200530180223 92 150 3.5 12.2 0.00 0.02 0.00 18 1017.5
20200530175233 92 138 7.0 11.3 0.00 0.02 0.00 19 1017.7
20200530174222 92 135 5.2 10.4 0.00 0.02 0.00 17 1017.7
20200530173232 92 150 6.1 11.3 0.00 0.02 0.00 18 1017.9
20200530172223 91 153 7.0 10.4 0.00 0.02 0.00 19 1017.9
20200530171217 90 149 5.2 12.2 0.00 0.02 0.00 20 1018.0
20200530170226 90 153 5.2 10.4 0.00 0.02 0.00 21 1018.0
20200530165215 90 159 7.0 12.2 0.00 0.02 0.00 20 1018.0
20200530164225 89 146 5.2 10.4 0.00 0.02 0.00 22 1018.0
20200530163216 88 125 4.3 9.6 0.00 0.02 0.00 23 1018.1
20200530162224 87 120 6.1 12.2 0.00 0.02 0.00 23 1018.1
20200530161218 87 148 7.0 10.4 0.00 0.02 0.00 24 1018.2
20200530160227 87 137 6.1 10.4 0.00 0.02 0.00 24 1018.2
20200530155217 86 137 6.1 10.4 0.00 0.02 0.00 25 1018.3
20200530154226 84 151 4.3 10.4 0.00 0.02 0.00 27 1018.3
20200530153218 84 146 5.2 13.0 0.00 0.02 0.00 27 1018.3
20200530152230 84 155 5.2 10.4 0.00 0.02 0.00 28 1018.4
20200530151219 83 103 3.5 7.0 0.00 0.02 0.00 33 1018.3
20200530150229 81 139 4.3 7.0 0.00 0.02 0.00 31 1018.3
20200530145218 80 123 1.7 5.2 0.00 0.02 0.00 37 1018.3
20200530144228 79 65 1.7 4.3 0.00 0.02 0.00 37 1018.2
20200530143222 78 63 1.7 4.3 0.00 0.02 0.00 38 1018.1
20200530142231 78 101 2.6 3.5 0.00 0.02 0.00 39 1018.1
20200530141220 77 72 0.0 2.6 0.00 0.02 0.00 40 1018.0
20200530140231 76 342 0.0 0.0 0.00 0.02 0.00 43 1018.0
20200530135221 76 342 0.0 1.7 0.00 0.02 0.00 42 1018.0
20200530134215 78 13 0.0 1.7 0.00 0.02 0.00 39 1017.9
20200530133224 78 138 0.0 0.0 0.00 0.02 0.00 41 1017.8
20200530132215 78 141 0.0 0.0 0.00 0.02 0.00 40 1017.7
20200530131224 78 166 0.0 0.9 0.00 0.02 0.00 37 1017.7
20200530130216 75 220 0.0 0.9 0.00 0.02 0.00 38 1017.6
20200530125229 73 208 0.9 1.7 0.00 0.02 0.00 41 1017.6
20200530124218 73 197 0.9 2.6 0.00 0.02 0.00 40 1017.6
20200530123228 72 212 2.6 3.5 0.00 0.02 0.00 42 1017.6
20200530122218 72 195 1.7 3.5 0.00 0.02 0.00 40 1017.5
20200530121228 71 167 3.5 4.3 0.00 0.02 0.00 41 1017.5
20200530120222 71 175 2.6 4.3 0.00 0.02 0.00 42 1017.3
20200530115232 71 209 1.7 3.5 0.00 0.02 0.00 42 1017.1
20200530114222 71 217 1.7 3.5 0.00 0.02 0.00 42 1017.3
20200530113232 72 209 1.7 2.6 0.00 0.02 0.00 41 1017.1
20200530112222 73 181 0.9 3.5 0.00 0.02 0.00 40 1017.2
20200530111217 72 163 2.6 4.3 0.00 0.02 0.00 40 1017.2
20200530110225 72 187 1.7 2.6 0.00 0.02 0.00 42 1017.3
20200530105234 71 166 0.9 4.3 0.00 0.02 0.00 43 1017.3
20200530104222 71 184 2.6 3.5 0.00 0.02 0.00 44 1017.4
20200530103232 70 166 2.6 3.5 0.00 0.02 0.00 45 1017.4
20200530102223 70 162 0.9 1.7 0.00 0.02 0.00 44 1017.4
20200530101217 71 86 0.9 2.6 0.00 0.02 0.00 44 1017.4
20200530100227 71 178 1.7 2.6 0.00 0.02 0.00 43 1017.5
20200530095217 71 221 0.0 0.9 0.00 0.02 0.00 44 1017.5
20200530094227 71 89 0.0 0.0 0.00 0.02 0.00 43 1017.5
20200530093217 71 171 0.0 0.0 0.00 0.02 0.00 46 1017.6
20200530092231 72 172 0.0 1.7 0.00 0.02 0.00 42 1017.4
20200530091220 72 207 0.0 0.9 0.00 0.02 0.00 43 1017.4
20200530090230 72 206 0.0 0.0 0.00 0.02 0.00 43 1017.4
20200530085220 73 240 0.0 0.0 0.00 0.02 0.00 44 1017.6
20200530084230 74 162 0.0 2.6 0.00 0.02 0.00 41 1017.7
20200530083224 74 157 0.9 1.7 0.00 0.02 0.00 40 1017.7
20200530082233 75 146 0.9 2.6 0.00 0.02 0.00 39 1017.9
20200530081222 75 152 0.9 1.7 0.00 0.02 0.00 39 1018.0